Weather in Civitavecchia

Italy     42°05′47″N   11°47′42″E
temp.,
°C
wind,
m/s
gust,
m/s
humid.,
%
clouds,
%
prec.,
mm/h
press.,
hPa
HPBL,
m
12 april, mon
mon1223:00+15se91185100 4.2 1020751
02:00+15se798287 8.2 1020586
05:00+15se4579100 0.1 1019426
08:00+14se81081100 0.5 1019602
11:00+14sse111287100 2.2 1018604
14:00+15sse91185100 6.9 1017877
17:00+15ssw101195100 6.6 1015704
20:00+14sw896959 8.8 1015687
13 april, tue
tue1323:00+13wsw1010615 0.0 10161007
02:00+13ssw997037 0.0 10141126
05:00+12wnw10118288 0.7 1013661
08:00+12nw79733 0.9 1015807
11:00+13wnw676846 0.3 10171063
14:00+13wnw66695 0.3 1017842
17:00+12nne877374 0.2 1017543
20:00+11nne997125 0.2 1019487
14 april, wed
wed1423:00+10n1011700 0.0 1020507
02:00+9n911660 0.0 1020680
05:00+10nne89630 0.0 1020541
08:00+9nne43651 0.0 1020315
11:00+11se236186 0.0 1021474
14:00+12se447237 0.0 1021569
17:00+12s55725 0.0 1020655
20:00+12s44707 0.0 1019590
15 april, thu
thu1523:00+12e22695 0.0 1020479
02:00+11ene22742 0.0 1020217
05:00+11e33715 0.0 1019270
08:00+11e45755 0.0 1019322
11:00+12se456965 0.1 1019530
14:00+13s54625 0.2 1019842
17:00+13s22603 0.0 1017731
20:00+13se116199 0.0 1017643
16 april, fri
fri1623:00+13e3368100 0.0 1018398
02:00+12e45745 0.0 1018269
05:00+11ene44738 0.0 1016240
08:00+11ne2270100 0.0 1016200
11:00+12sw1163100 0.0 1016261
14:00+13nw3360100 0.0 1015221
17:00+14wnw6656100 0.0 1013389
20:00+14wnw6659100 0.0 1013829